Regional Weather Roundup
Issued by NWS

Home | Current Version | Previous Version | Text Only | Print | Product List | Glossary Off
Versions: 1 2 3 4 5 6 7 8 9 10 11 12 13 14 15 16 17 18 19 20 21 22 23 24 25 26 27

000
ASUS45 KBOU 251510
RWRCO

WEATHER ROUNDUP FOR COLORADO
NATIONAL WEATHER SERVICE DENVER/BOULDER CO
900 AM MDT FRI MAY 25 2018

NOTE: "FAIR" INDICATES FEW OR NO CLOUDS BELOW 12000 FEET WITH NO
SIGNIFICANT WEATHER AND/OR OBSTRUCTIONS TO VISIBILITY.

COZ001>005-013-030-031-251600-
...NORTHWEST COLORADO...

CITY           SKY/WX    TMP DP  RH WIND       PRES   REMARKS
CRAIG          FAIR      59  41  51 MISG      30.19F
HAYDEN         FAIR      58  38  47 E8        30.22S
MEEKER         FAIR      61  30  31 CALM      30.19F
RANGELY        FAIR      65  32  28 E13       30.11F
RABBIT EARS PA FAIR      50  32  50 S5        30.45R
STEAMBOAT SPGS FAIR      52  37  56 CALM      30.23S
WALDEN         FAIR      52  34  50 CALM      30.32S
$$

COZ006>008-011-251600-
...WEST CENTRAL VALLEYS...

CITY           SKY/WX    TMP DP  RH WIND       PRES   REMARKS
GRAND JUNCTION FAIR      71  31  22 S8        30.10S
MONTROSE       FAIR      70  23  17 E14       30.18F
EAGLE          FAIR      54  29  38 CALM      30.29F
RIFLE          FAIR      62  34  35 VRB3      30.17F
DELTA          FAIR      68  31  25 E6        30.16F
NUCLA          FAIR      70  21  16 CALM      30.22F
$$

COZ017>023-064>068-251600-
...SOUTHWEST COLORADO...

CITY           SKY/WX    TMP DP  RH WIND       PRES   REMARKS
DURANGO        FAIR      63  22  20 VRB5      30.27R
CORTEZ         FAIR      69  26  20 CALM      30.21S
PAGOSA SPRINGS FAIR      64  10  11 CALM      30.33S
TELLURIDE      FAIR      61  17  18 CALM      30.40S
WOLF CREEK PAS FAIR      46   9  21 SW6       30.62R
$$

COZ009-010-012-014-032>034-037-058>063-251600-
...CENTRAL COLORADO...

CITY           SKY/WX    TMP DP  RH WIND       PRES   REMARKS
ASPEN          FAIR      61  28  28 CALM      30.28F
BUENA VISTA    FAIR      58  25  28 CALM      30.33F
COPPER MTN     FAIR      50  19  29 S3        30.56S
BERTHOUD PASS  FAIR      41  32  70 W17G29    30.58R
COTTONWOOD PAS FAIR      61  28  29 E3        30.43S
GUNNISON       FAIR      50  25  37 CALM      30.35F
GRANBY         FAIR      49  34  56 CALM      30.35F
KREMMLING      FAIR      54  34  47 CALM      30.32F
LEADVILLE      FAIR      52  24  33 CALM      30.42S
MONARCH PASS   FAIR      46  14  27 MISG      30.66S
SALIDA         FAIR      58  29  33 CALM      30.38F
SUNLIGHT       FAIR      50  21  32 SW7       30.50S
WILKERSON PASS FAIR      52  18  25 SW5       30.55S
$$

COZ069>075-251600-
...SAN LUIS VALLEY/SANGRE DE CRISTO MOUNTAINS...

CITY           SKY/WX    TMP DP  RH WIND       PRES   REMARKS
ALAMOSA        FAIR      57  22  25 CALM      30.31S
DEL NORTE      FAIR      61  20  20 E7        30.34S
LA VETA PASS   FAIR      59  21  23 MISG      30.57R
SAGUACHE       NOT AVBL
$$

COZ035-036-038>040-251600-
...NORTHERN COLORADO FRONT RANGE...

CITY           SKY/WX    TMP DP  RH WIND       PRES   REMARKS
DENVER INTL AP FAIR      72  39  30 SW10      30.12S
AURORA         NOT AVBL
FRONT RANGE AP SUNNY     73  37  27 W6        30.14S
ERIE MUNI ARPT FAIR      69  40  34 CALM      30.16S
BOULDER MUN AP FAIR      64  46  52 CALM      30.11S
CENTENNIAL     FAIR      72  38  29 W8        30.15S
BROOMFIELD     SUNNY     70  39  32 VRB3      30.14S
FORT COLLINS   FAIR      66  48  52 CALM      30.11S
LONGMONT       FAIR      71  48  43 CALM      30.12R
$$

COZ041-046-047-076>085-087-088-251600-
...PIKES PEAK/PALMER DIVIDE AND SOUTHERN FOOTHILLS...

CITY           SKY/WX    TMP DP  RH WIND       PRES   REMARKS
COLO. SPRINGS  FAIR      73  37  27 CALM      30.19S
A. F. ACADEMY  NOT AVBL
SCHRIEVER AFB  NOT AVBL
CHEYENNE MTN   FAIR      70  40  32 E6        30.18S
ELLICOTT         N/A    N/A N/A N/A W5        30.17R
FALCON         FAIR      73  31  21 S8        30.24
FORT CARSON    NOT AVBL
LIMON          FAIR      76  47  35 VRB5      30.12F
MONUMENT HILL  FAIR      70  34  26 SW7       30.25R
CANON CITY     SUNNY     75  39  27 W16G23    30.14S
WALSENBURG     FAIR      73  37  27 CALM      30.19S
TRINIDAD       FAIR      70  38  31 MISG      30.18R
$$

COZ042>045-048>051-090-091-251600-
...NORTHEAST COLORADO...

CITY           SKY/WX    TMP DP  RH WIND       PRES   REMARKS
GREELEY ARPT   FAIR      68  44  42 W5        30.09F
AKRON          FAIR      72  48  42 W13       30.07S
BURLINGTON     FAIR      75  58  55 W10       30.04F
WRAY           FAIR      77  50  38 W7        30.01F
YUMA           FAIR      73  41  31 W9        30.04S
STERLING       FAIR      68  54  60 SW7       30.03S
HOLYOKE        FAIR      79  55  44 W8        30.01S
FORT MORGAN    FAIR      68  47  47 W7        30.08S
$$

COZ086-089-092>099-251600-
...SOUTHEAST COLORADO...

CITY           SKY/WX    TMP DP  RH WIND       PRES   REMARKS
PUEBLO         FAIR      72  40  31 W3        30.10F
LA JUNTA       FAIR      74  45  35 W7        30.07S
LAMAR          FAIR      71  54  54 NW7       30.02S
SPRINGFIELD      N/A     77  49  37 NW18      30.04R
$$




USA.gov is the U.S. government's official web portal to all federal, state and local government web resources and services.